Probability
0 0 0 0 3 10 16 48 87 100 100 100 97 100 100 97 94 90 71 68 48 55 81 77 58 52 52 29 6 13 3 16 3 0 6 0 0 0 0 0 0 0 0
0 0 0 10 3 6 26 42 71 94 97 94 97 97 97 97 100 100 97 90 81 90 87 90 87 87 77 39 10 23 39 16 16 19 13 3 0 0 0 0 0 0 0
0 0 6 10 23 29 16 23 52 84 90 84 87 81 90 90 81 90 94 90 94 94 94 84 87 87 74 77 68 39 32 48 6 6 16 3 13 6 0 0 0 0 0
0 0 3 6 19 23 26 29 45 48 74 81 71 68 61 55 58 71 81 87 87 87 94 87 90 84 84 84 71 29 48 48 19 0 6 0 10 0 0 0 0 0 0
0 0 6 3 10 19 32 42 48 45 65 71 58 42 32 29 35 42 55 71 81 84 87 84 94 84 87 68 71 52 52 48 58 19 3 3 0 0 0 0 0 0 0
0 0 3 3 10 32 32 52 48 58 55 48 42 29 13 19 23 42 45 61 81 84 74 87 87 71 71 61 68 77 71 52 42 35 19 3 3 0 0 3 3 3 0
0 0 0 6 6 19 26 32 35 32 35 26 16 19 10 13 13 19 35 58 68 71 61 61 61 58 58 45 55 58 65 48 39 32 26 35 35 16 13 10 6 3 0
0 0 0 0 0 6 3 6 6 6 6 6 6 10 10 16 16 16 29 39 42 39 35 45 42 42 39 29 58 55 39 29 26 23 32 45 52 42 23 10 10 6 13
0 0 0 0 0 3 0 3 3 6 6 3 6 10 10 13 10 13 13 26 19 23 23 32 29 26 29 26 32 42 26 23 23 19 35 42 42 48 26 29 32 16 16
0 0 0 0 0 0 3 3 3 3 6 6 10 6 10 10 6 10 13 13 10 10 13 6 10 13 16 19 23 16 19 16 16 58 32 35 19 35 32 35 42 29 26
0 0 0 0 0 0 0 0 0 3 3 3 3 10 10 10 0 3 6 13 10 6 6 3 0 0 0 3 13 6 13 10 6 6 6 23 35 45 48 55 55 39 32
0 0 0 0 0 0 0 0 3 3 3 3 6 10 6 3 0 0 0 0 6 3 3 0 0 0 0 0 3 3 6 6 6 6 6 13 13 29 55 61 48 45 35
0 0 0 0 0 0 0 0 3 3 3 3 6 6 3 3 0 0 0 0 0 0 0 0 0 0 0 3 3 3 3 3 3 3 3 3 6 32 52 42 45 58 23
0 0 0 0 0 0 0 0 0 3 3 3 3 3 3 3 3 0 0 0 0 0 0 0 0 0 0 0 0 3 3 0 0 0 0 3 3 13 19 13 23 13 6
0 0 0 0 0 0 0 0 0 0 0 0 0 0 0 0 0 6 3 0 0 0 3 3 10 3 6 6 10 6 0 3 0 0 0 0 0 0 0 0 0 3 13
0 0 0 0 0 0 0 0 0 0 0 0 0 0 0 0 0 0 0 3 0 0 6 23 35 32 13 0 0 6 16 10 3 3 0 0 0 0 0 0 0 0 0
0 0 0 0 0 0 0 0 0 0 0 0 0 0 0 0 0 0 0 0 6 13 23 32 29 42 10 0 0 0 29 23 16 3 3 0 0 0 6 3 0 0 0
0 0 0 0 0 0 0 0 0 0 0 0 0 0 0 0 0 0 0 0 0 0 19 10 23 35 3 0 0 3 13 35 32 29 3 3 0 0 0 0 0 3 0
0 0 0 0 0 0 0 0 0 0 0 0 0 0 0 0 0 0 0 0 0 0 0 10 13 16 6 0 0 0 65 61 52 29 16 6 13 0 0 0 0 0 0
0 0 0 0 0 0 0 0 0 0 0 0 0 0 0 0 0 0 0 0 0 0 0 3 6 10 10 0 0 0 71 61 48 48 32 0 0 0 0 0 0 0 0
0 0 0 0 0 0 0 0 0 0 0 0 0 0 0 0 0 0 0 0 0 0 0 0 0 0 0 0 0 0 61 58 45 39 42 26 0 0 0 0 0 0 0
0 0 0 0 0 0 0 0 0 0 0 0 0 0 0 0 0 0 0 0 0 0 0 0 0 0 0 0 0 0 0 0 35 35 29 10 0 0 0 0 0 0 0
0 0 0 0 0 0 0 0 0 0 0 0 0 0 0 0 0 0 0 0 0 0 0 0 0 0 0 0 0 0 0 0 10 6 3 0 0 0 0 0 0 0 0
0 0 0 0 0 0 0 0 0 0 0 0 0 0 0 0 0 0 0 0 0 0 0 0 0 0 0 0 0 0 0 0 0 0 0 0 0 0 0 0 0 0 3
0 0 0 0 0 0 0 0 0 0 0 0 0 0 0 0 0 0 0 0 0 0 0 0 0 0 0 0 0 0 0 0 0 0 0 0 0 0 3 3 3 3 0
0 0 0 0 0 0 0 0 0 0 0 0 0 0 0 0 0 0 0 0 0 0 0 0 0 0 0 0 0 0 0 0 0 0 0 0 0 0 0 0 0 0 0
Height
5869 5869 5870 5870 5870 5871 5871 5871 5871 5870 5870 5869 5869 5868 5868 5868 5869 5869 5870 5871 5871 5871 5872 5872 5871 5871 5871 5871 5871 5871 5871 5870 5870 5869 5869 5869 5868 5867 5867 5866 5866 5865 5866
5859 5860 5862 5862 5863 5864 5864 5865 5865 5864 5864 5863 5862 5862 5861 5861 5862 5862 5863 5864 5865 5866 5866 5866 5866 5866 5866 5867 5867 5867 5866 5865 5865 5865 5864 5864 5864 5863 5862 5861 5861 5860 5860
5850 5851 5852 5853 5855 5855 5856 5857 5857 5857 5857 5857 5855 5855 5854 5854 5855 5855 5856 5857 5858 5859 5860 5860 5861 5861 5861 5861 5861 5861 5861 5860 5860 5859 5859 5859 5858 5857 5857 5856 5855 5855 5855
5840 5841 5843 5844 5845 5846 5847 5848 5849 5850 5850 5849 5849 5847 5846 5846 5847 5847 5848 5849 5851 5852 5853 5854 5855 5855 5855 5855 5855 5855 5855 5855 5854 5853 5853 5853 5852 5851 5850 5850 5849 5849 5849
5831 5832 5833 5834 5835 5837 5838 5839 5840 5841 5841 5842 5842 5841 5839 5839 5838 5839 5840 5842 5843 5845 5846 5847 5848 5849 5849 5849 5849 5849 5849 5849 5848 5847 5846 5845 5845 5844 5844 5843 5843 5843 5843
5821 5823 5824 5825 5826 5827 5828 5829 5830 5831 5833 5834 5834 5834 5833 5832 5830 5830 5833 5835 5836 5837 5839 5840 5841 5842 5842 5842 5843 5842 5842 5841 5841 5840 5839 5839 5838 5838 5837 5837 5836 5837 5837
5812 5813 5814 5815 5816 5816 5818 5819 5820 5822 5824 5825 5825 5826 5825 5825 5823 5824 5827 5828 5828 5829 5831 5833 5834 5835 5835 5836 5836 5835 5835 5835 5834 5834 5833 5832 5832 5831 5830 5830 5830 5830 5831
5802 5803 5804 5805 5806 5806 5808 5809 5811 5813 5815 5816 5816 5818 5818 5817 5816 5817 5819 5820 5821 5822 5825 5827 5828 5829 5829 5829 5829 5828 5828 5828 5827 5827 5826 5825 5825 5824 5824 5824 5823 5823 5824
5793 5794 5795 5795 5796 5797 5799 5801 5802 5804 5806 5807 5808 5809 5810 5810 5810 5811 5812 5813 5815 5816 5819 5821 5822 5823 5823 5823 5822 5822 5821 5821 5820 5820 5819 5818 5818 5817 5817 5817 5817 5817 5817
5785 5786 5787 5787 5788 5790 5791 5793 5794 5796 5798 5799 5800 5800 5801 5802 5803 5804 5806 5807 5809 5811 5814 5815 5816 5816 5816 5816 5815 5815 5815 5814 5813 5813 5812 5812 5812 5811 5811 5811 5811 5811 5811
5779 5780 5780 5781 5782 5784 5785 5786 5788 5789 5791 5793 5793 5793 5795 5797 5799 5800 5802 5803 5805 5807 5809 5810 5810 5810 5810 5809 5809 5808 5808 5808 5807 5806 5806 5806 5805 5805 5805 5805 5805 5805 5805
5775 5776 5776 5777 5778 5779 5780 5781 5782 5783 5785 5787 5788 5789 5791 5793 5794 5796 5798 5799 5801 5803 5804 5804 5804 5804 5803 5803 5802 5802 5801 5801 5800 5800 5800 5800 5799 5799 5799 5799 5800 5799 5799
5773 5773 5773 5774 5775 5777 5777 5778 5779 5780 5782 5784 5786 5787 5788 5790 5792 5793 5795 5796 5797 5798 5798 5798 5798 5798 5797 5797 5796 5795 5795 5794 5794 5794 5794 5793 5793 5793 5793 5794 5794 5794 5794
5773 5772 5772 5773 5775 5776 5777 5778 5778 5780 5782 5783 5784 5786 5787 5789 5790 5791 5792 5792 5793 5793 5793 5793 5792 5792 5791 5790 5790 5789 5789 5788 5787 5787 5787 5787 5787 5787 5787 5788 5788 5788 5788
5775 5775 5775 5775 5776 5777 5778 5779 5780 5781 5782 5783 5785 5785 5786 5787 5787 5788 5788 5788 5788 5788 5788 5787 5786 5786 5785 5784 5784 5783 5782 5782 5781 5781 5781 5781 5781 5781 5781 5782 5782 5783 5783
5778 5778 5778 5778 5779 5779 5780 5780 5781 5782 5783 5784 5784 5784 5785 5785 5785 5785 5784 5784 5783 5783 5782 5781 5780 5780 5779 5778 5778 5777 5776 5775 5774 5774 5774 5774 5775 5775 5775 5776 5776 5777 5777
5782 5782 5782 5782 5782 5782 5782 5782 5783 5783 5783 5784 5784 5783 5783 5783 5782 5781 5780 5779 5778 5777 5776 5775 5774 5773 5772 5771 5771 5770 5769 5769 5768 5767 5767 5768 5768 5769 5769 5770 5770 5771 5771
5787 5786 5786 5785 5785 5785 5785 5785 5785 5785 5784 5784 5783 5782 5781 5780 5779 5777 5776 5774 5773 5771 5770 5769 5767 5766 5765 5764 5764 5763 5763 5762 5762 5761 5761 5761 5762 5762 5763 5763 5764 5765 5765
5791 5790 5789 5789 5788 5787 5787 5786 5786 5785 5784 5783 5782 5780 5779 5777 5775 5773 5771 5769 5767 5765 5763 5762 5760 5759 5758 5757 5757 5757 5756 5755 5755 5755 5755 5755 5756 5756 5757 5757 5758 5759 5759
5795 5794 5792 5791 5790 5789 5788 5787 5786 5785 5783 5782 5780 5778 5776 5774 5772 5769 5767 5764 5762 5760 5757 5755 5754 5752 5751 5751 5750 5749 5749 5749 5749 5749 5749 5749 5750 5750 5751 5752 5752 5753 5754
5798 5796 5795 5794 5792 5791 5790 5788 5786 5785 5783 5781 5779 5777 5774 5772 5769 5767 5764 5760 5757 5755 5752 5750 5748 5746 5745 5744 5744 5743 5743 5743 5743 5743 5743 5744 5744 5745 5745 5746 5747 5747 5748
5801 5799 5798 5796 5794 5793 5791 5789 5787 5785 5783 5781 5779 5776 5774 5771 5768 5764 5761 5757 5754 5751 5748 5746 5743 5742 5740 5739 5738 5738 5737 5737 5737 5737 5738 5738 5739 5739 5740 5741 5742 5743 5744
5803 5802 5800 5798 5796 5794 5792 5790 5788 5786 5784 5782 5779 5777 5774 5771 5767 5763 5759 5755 5752 5748 5745 5742 5740 5738 5736 5735 5734 5733 5732 5732 5731 5732 5732 5733 5733 5734 5735 5736 5737 5738 5739
5806 5804 5802 5800 5798 5796 5794 5792 5790 5788 5786 5783 5781 5778 5775 5771 5768 5764 5759 5755 5751 5748 5744 5741 5738 5736 5734 5732 5730 5729 5728 5727 5727 5726 5727 5728 5729 5730 5730 5731 5732 5733 5734
5809 5807 5805 5803 5801 5799 5797 5795 5793 5791 5788 5785 5783 5780 5777 5773 5769 5765 5761 5757 5753 5749 5745 5741 5738 5735 5733 5730 5728 5727 5725 5724 5723 5723 5723 5724 5725 5725 5726 5727 5728 5729 5730
5811 5809 5807 5805 5803 5801 5800 5798 5796 5793 5791 5788 5785 5782 5779 5776 5772 5768 5764 5759 5755 5751 5747 5743 5740 5737 5734 5731 5729 5726 5724 5723 5722 5721 5721 5722 5722 5722 5723 5723 5724 5726 5727
Wind_Speed
35 35 34 34 33 31 30 29 28 28 28 27 27 27 26 24 24 23 23 22 22 21 20 20 19 19 19 19 18 19 19 19 20 20 20 20 20 20 20 20 21 22 23
38 37 37 36 36 35 33 32 31 31 30 31 30 30 29 28 27 26 26 25 23 22 22 21 20 20 20 20 20 21 21 21 21 21 22 22 23 23 22 22 22 23 24
37 37 37 37 37 37 36 35 34 34 34 34 34 33 33 31 30 29 28 27 25 24 23 22 21 21 21 21 21 21 22 22 23 23 24 25 25 25 24 24 24 24 25
35 34 35 36 37 38 38 38 37 37 37 37 37 38 37 35 34 32 30 29 28 25 23 23 22 22 22 23 23 23 23 24 24 25 25 26 27 27 27 27 26 26 26
32 32 33 34 35 37 39 40 40 40 39 39 39 39 40 38 38 35 33 30 28 26 24 23 23 24 24 24 24 24 24 24 25 25 26 27 27 28 28 27 27 26 26
32 31 32 32 34 36 39 41 42 42 41 41 41 41 42 40 38 36 34 33 30 27 25 23 24 24 24 24 24 24 25 25 25 26 26 26 26 27 27 27 27 25 24
31 32 32 32 34 36 38 41 42 42 43 44 43 42 41 43 41 38 35 34 32 28 24 22 23 22 23 23 24 24 25 25 25 25 25 25 26 26 26 25 26 26 25
29 30 31 33 34 35 36 39 41 42 42 44 43 43 43 43 41 39 37 35 31 26 22 20 21 21 22 22 23 23 23 23 23 24 24 24 25 25 24 24 25 26 26
26 27 29 30 31 32 33 35 37 38 39 40 42 41 41 41 39 38 36 32 27 20 17 18 19 20 21 21 21 21 22 22 22 22 23 23 24 23 24 23 23 24 25
22 23 25 26 26 26 27 30 33 35 36 36 35 35 36 36 34 28 25 22 17 14 15 16 18 19 20 20 20 20 20 21 21 22 22 22 22 22 22 22 22 22 24
16 16 17 18 19 20 21 23 26 30 31 31 30 28 28 26 23 20 17 13 11 12 15 17 18 18 19 19 19 19 19 20 21 21 21 21 21 21 21 22 22 22 23
8 8 9 11 12 13 14 15 18 19 20 21 19 16 15 14 12 10 9 9 11 13 15 16 17 18 18 19 19 19 20 21 21 21 22 21 21 21 21 22 22 21 21
4 5 5 5 6 6 7 8 9 9 9 10 9 7 6 6 5 6 7 9 11 13 15 16 17 18 18 19 19 20 20 21 21 21 22 22 22 21 21 22 22 21 21
7 7 9 10 9 8 7 8 7 7 5 5 5 3 1 2 5 7 9 10 12 14 16 17 18 19 19 20 20 21 21 21 21 22 22 22 22 22 22 22 22 22 21
12 11 11 12 11 10 9 8 7 6 4 2 0 2 3 5 6 8 10 11 13 15 16 17 18 19 20 21 21 21 21 21 22 22 22 22 23 23 23 23 23 23 22
12 11 10 10 9 8 7 7 6 4 2 2 3 4 6 8 9 11 12 14 15 17 18 19 20 20 20 21 22 22 21 22 22 22 23 23 23 23 23 23 24 24 23
14 13 12 11 10 9 8 7 7 6 5 4 5 7 8 10 12 13 15 17 18 19 20 21 22 22 22 22 22 22 22 23 23 23 22 22 23 23 23 23 23 24 24
15 14 13 12 11 10 9 9 7 7 6 6 7 8 10 12 14 15 17 19 20 22 23 23 24 24 24 24 23 23 23 23 23 22 22 22 22 22 22 22 23 23 24
13 13 12 11 10 10 9 9 8 8 8 9 10 11 12 14 15 17 18 19 21 22 23 23 23 24 24 24 24 23 23 23 22 22 21 21 21 21 21 21 21 22 23
12 12 11 11 10 10 9 9 9 9 10 10 11 12 13 14 15 16 17 19 20 20 21 22 22 23 23 22 22 22 22 21 21 21 20 20 20 20 20 20 20 21 21
12 12 12 11 11 10 10 10 10 10 11 11 12 12 12 13 14 15 16 16 17 17 18 18 19 19 19 19 19 19 19 19 19 19 19 18 19 19 18 18 19 20 20
13 12 12 12 11 11 11 11 11 11 12 12 12 13 13 13 14 15 16 16 16 15 15 15 15 15 16 16 16 17 17 18 18 18 18 18 18 19 18 18 18 18 19
13 13 13 13 13 13 13 13 13 13 13 13 13 14 15 16 16 16 16 16 15 14 13 13 12 12 12 13 13 14 14 15 16 16 17 17 17 17 17 17 17 17 17
13 14 14 14 14 14 14 14 14 15 15 15 15 16 16 17 17 18 17 16 15 14 13 12 11 10 10 10 10 11 11 12 13 14 14 14 15 15 16 16 16 16 16
14 14 14 14 14 15 15 15 15 16 16 16 17 17 18 18 18 19 18 17 17 16 15 13 12 11 10 9 8 8 8 7 7 8 9 10 11 11 12 13 13 13 13
13 14 14 15 15 15 15 15 15 16 16 17 17 17 17 18 19 20 20 19 18 18 17 16 15 13 12 11 10 9 8 6 4 3 3 4 5 5 6 7 8 9 9
Wind_Direction
263 263 264 266 268 270 271 273 273 275 277 277 275 272 267 263 259 255 253 251 251 251 252 256 259 261 262 262 265 270 273 274 277 279 279 278 280 281 278 274 269 265 261
262 261 261 261 263 265 266 268 268 270 272 271 271 269 267 265 262 258 253 249 248 252 253 255 258 259 261 262 266 270 273 275 276 277 278 278 278 280 277 275 271 266 262
262 262 261 260 260 260 261 262 264 266 266 266 267 266 266 265 263 260 256 251 249 249 252 256 258 260 262 263 266 269 273 274 276 277 276 277 278 279 276 275 273 269 262
261 261 262 261 259 257 257 257 259 261 261 262 263 264 263 263 260 259 257 253 250 249 250 254 258 261 263 265 269 271 272 273 275 277 274 275 277 277 277 275 272 269 263
262 262 262 262 260 257 255 254 255 255 256 257 259 260 261 261 258 256 257 255 252 247 248 254 258 261 264 267 271 273 274 275 274 274 273 275 275 275 277 276 273 270 262
264 265 264 263 261 258 255 253 253 253 254 254 256 258 258 258 257 256 260 257 254 249 249 255 258 260 265 269 272 274 274 275 274 273 272 273 274 274 277 276 273 269 263
265 266 265 264 262 259 255 252 251 251 252 253 254 255 258 259 258 258 259 256 253 249 247 253 257 261 267 270 272 273 273 273 273 272 271 272 272 272 273 274 271 268 262
265 265 265 263 262 259 255 252 251 250 251 252 253 255 259 260 261 260 258 256 252 249 250 254 259 265 268 270 272 272 272 272 271 271 270 270 270 270 271 273 271 268 263
263 265 264 263 262 259 255 252 250 250 252 253 255 256 258 259 263 265 258 251 247 243 246 255 260 264 267 268 270 270 270 270 270 269 269 269 268 269 269 271 272 268 262
260 262 262 262 260 257 256 253 251 250 253 255 258 260 259 262 262 256 250 242 235 238 250 258 262 265 267 268 268 268 270 271 271 270 269 268 266 266 266 267 269 268 263
256 258 259 258 254 254 255 253 250 251 251 255 258 258 257 254 247 244 238 232 235 249 258 263 267 269 270 270 270 270 272 274 274 273 270 268 266 264 264 263 266 267 262
244 248 248 247 246 245 246 244 244 242 243 247 248 238 233 232 224 221 229 239 251 258 263 269 272 273 274 274 274 274 274 274 274 273 270 267 266 265 264 262 263 265 261
184 197 204 197 199 207 206 198 197 205 216 219 207 195 201 208 223 243 258 262 264 267 270 273 275 276 277 277 277 277 276 275 273 272 270 267 265 263 263 262 262 262 259
114 131 130 131 133 136 139 140 138 147 154 161 162 166 228 270 271 275 274 273 272 273 274 274 276 277 278 279 278 278 277 276 274 271 269 267 265 263 261 260 261 261 259
90 98 103 106 107 108 108 112 108 107 111 105 52 310 305 298 290 287 283 278 276 276 277 277 278 279 280 279 278 277 277 275 274 272 269 267 265 263 260 259 258 259 258
79 84 86 87 87 88 88 87 79 71 41 355 329 314 306 301 296 291 288 284 283 281 280 280 280 280 281 280 278 277 277 276 275 272 269 267 264 262 260 258 257 256 256
74 75 74 72 70 68 66 59 50 39 21 353 331 318 309 303 298 293 290 288 287 285 284 281 280 280 280 279 279 277 277 277 274 272 269 267 265 263 260 258 256 255 255
70 69 68 66 62 58 53 47 38 24 7 347 331 319 311 306 300 296 293 291 289 287 285 283 281 281 280 280 278 277 276 275 273 271 269 267 265 263 262 259 257 256 255
63 62 61 57 53 47 40 32 21 9 356 345 333 324 317 312 307 303 300 296 293 291 288 286 284 282 281 280 278 276 274 273 271 269 268 266 264 263 261 259 258 257 256
58 55 51 47 43 37 30 21 10 1 354 346 339 332 327 322 316 311 307 303 299 296 292 288 285 283 282 281 278 275 273 271 270 268 265 264 264 263 262 260 259 258 258
51 49 47 45 40 35 28 22 18 13 8 2 356 349 343 336 331 326 321 315 309 304 300 296 292 289 286 282 279 276 273 270 268 266 266 265 263 262 261 261 261 259 260
49 49 48 43 40 35 31 28 25 23 21 18 14 9 3 357 350 344 339 332 326 318 311 306 302 296 292 288 283 278 275 272 269 266 265 264 263 262 262 263 262 261 261
49 49 46 44 42 40 38 37 37 36 33 29 26 22 16 10 4 359 356 352 347 340 331 323 315 308 303 297 290 284 280 275 271 268 265 262 261 263 263 263 264 261 261
47 47 46 46 45 45 45 46 46 43 39 36 32 28 23 20 16 14 12 10 7 3 358 351 344 335 325 316 305 297 290 282 275 270 266 261 260 262 263 264 263 261 261
48 48 48 48 49 50 51 51 49 45 42 40 38 34 31 28 25 23 23 22 21 19 16 13 10 5 359 352 343 331 318 306 289 274 267 265 267 267 267 266 263 260 262
47 47 48 50 51 52 52 51 49 45 42 41 39 36 34 31 29 29 29 29 29 28 29 29 28 28 26 22 19 16 13 10 358 328 283 276 280 277 273 265 259 256 261